| time (UTC) | temp F | wind direction | speed MPH | gust MPH | rain 1hr in | rain 24hr in | rain mn in | humidity % | barometer mb |
| 20260831010016 | 76 | 111 | 1.0 | 14.0 | 0.00 | 0.00 | 0.00 | 74 | 1010.4 |
| 20260831005509 | 77 | 132 | 2.0 | 14.0 | 0.00 | 0.00 | 0.00 | 73 | 1010.3 |
| 20260831005006 | 77 | 107 | 4.0 | 13.0 | 0.00 | 0.00 | 0.00 | 74 | 1010.2 |
| 20260831004508 | 77 | 119 | 3.0 | 8.0 | 0.00 | 0.00 | 0.00 | 74 | 1010.2 |
| 20260831004008 | 77 | 222 | 1.0 | 8.0 | 0.00 | 0.00 | 0.00 | 74 | 1010.4 |
| 20260831003508 | 77 | 82 | 1.0 | 8.0 | 0.00 | 0.00 | 0.00 | 73 | 1010.4 |
| 20260831003011 | 77 | 261 | 2.0 | 9.0 | 0.00 | 0.00 | 0.00 | 73 | 1010.4 |
| 20260831002508 | 78 | 147 | 1.0 | 9.0 | 0.00 | 0.00 | 0.00 | 72 | 1010.6 |
| 20260831002010 | 78 | 232 | 1.0 | 6.0 | 0.00 | 0.00 | 0.00 | 72 | 1010.7 |
| 20260831001511 | 78 | 128 | 1.0 | 8.0 | 0.00 | 0.00 | 0.00 | 72 | 1010.6 |
| 20260831001009 | 78 | 84 | 2.0 | 8.0 | 0.00 | 0.00 | 0.00 | 72 | 1010.6 |
| 20260831000509 | 78 | 116 | 2.0 | 9.0 | 0.00 | 0.00 | 0.00 | 72 | 1010.7 |
| 20260831000021 | 78 | 105 | 3.0 | 9.0 | 0.00 | 0.00 | 0.00 | 72 | 1010.7 |
| 20260830235506 | 78 | 148 | 2.0 | 9.0 | 0.00 | 0.00 | 0.00 | 71 | 1010.6 |
| 20260830235007 | 79 | 154 | 1.0 | 9.0 | 0.00 | 0.00 | 0.00 | 71 | 1010.5 |
| 20260830234515 | 79 | 223 | 3.0 | 9.0 | 0.00 | 0.00 | 0.00 | 70 | 1010.4 |
| 20260830234011 | 79 | 118 | 1.0 | 8.0 | 0.00 | 0.00 | 0.00 | 69 | 1010.5 |
| 20260830233507 | 79 | 304 | 3.0 | 8.0 | 0.00 | 0.00 | 0.00 | 69 | 1010.6 |
| 20260830233018 | 79 | 228 | 1.0 | 6.0 | 0.00 | 0.00 | 0.00 | 68 | 1010.6 |
| 20260830232508 | 80 | 145 | 1.0 | 9.0 | 0.00 | 0.00 | 0.00 | 67 | 1010.7 |
| 20260830232010 | 80 | 254 | 2.0 | 9.0 | 0.00 | 0.00 | 0.00 | 66 | 1010.7 |
| 20260830231513 | 81 | 96 | 1.0 | 8.0 | 0.00 | 0.00 | 0.00 | 65 | 1010.6 |
| 20260830231008 | 81 | 211 | 2.0 | 11.0 | 0.00 | 0.00 | 0.00 | 65 | 1010.4 |
| 20260830230511 | 81 | 144 | 3.0 | 11.0 | 0.00 | 0.00 | 0.00 | 65 | 1010.4 |
| 20260830230015 | 81 | 98 | 1.0 | 7.0 | 0.00 | 0.00 | 0.00 | 64 | 1010.3 |
| 20260830225508 | 82 | 98 | 0.0 | 8.0 | 0.00 | 0.00 | 0.00 | 64 | 1010.2 |
| 20260830225011 | 82 | 204 | 2.0 | 8.0 | 0.00 | 0.00 | 0.00 | 63 | 1010.1 |
| 20260830224516 | 83 | 119 | 1.0 | 10.0 | 0.00 | 0.00 | 0.00 | 63 | 1010.0 |
| 20260830224010 | 83 | 104 | 1.0 | 10.0 | 0.00 | 0.00 | 0.00 | 62 | 1010.1 |
| 20260830223510 | 83 | 103 | 2.0 | 10.0 | 0.00 | 0.00 | 0.00 | 62 | 1010.0 |
| 20260830223015 | 84 | 277 | 1.0 | 10.0 | 0.00 | 0.00 | 0.00 | 63 | 1010.0 |
| 20260830222509 | 84 | 223 | 2.0 | 10.0 | 0.00 | 0.00 | 0.00 | 62 | 1009.9 |
| 20260830222012 | 84 | 265 | 2.0 | 8.0 | 0.00 | 0.00 | 0.00 | 64 | 1009.9 |
| 20260830221517 | 84 | 296 | 1.0 | 8.0 | 0.00 | 0.00 | 0.00 | 65 | 1009.9 |
| 20260830221008 | 84 | 160 | 1.0 | 5.0 | 0.00 | 0.00 | 0.00 | 65 | 1009.9 |
| 20260830220510 | 84 | 107 | 1.0 | 6.0 | 0.00 | 0.00 | 0.00 | 64 | 1009.8 |
| 20260830220018 | 84 | 109 | 2.0 | 6.0 | 0.00 | 0.00 | 0.00 | 64 | 1009.8 |
| 20260830215512 | 83 | 113 | 2.0 | 8.0 | 0.00 | 0.00 | 0.00 | 65 | 1009.9 |
| 20260830215015 | 83 | 311 | 1.0 | 8.0 | 0.00 | 0.00 | 0.00 | 64 | 1010.0 |
| 20260830214515 | 83 | 204 | 2.0 | 12.0 | 0.00 | 0.00 | 0.00 | 62 | 1010.0 |
| 20260830214012 | 84 | 232 | 2.0 | 12.0 | 0.00 | 0.00 | 0.00 | 61 | 1009.9 |
| 20260830213512 | 85 | 237 | 1.0 | 8.0 | 0.00 | 0.00 | 0.00 | 60 | 1009.9 |
| 20260830213019 | 84 | 104 | 1.0 | 8.0 | 0.00 | 0.00 | 0.00 | 62 | 1009.7 |
| 20260830212510 | 83 | 160 | 2.0 | 9.0 | 0.00 | 0.00 | 0.00 | 63 | 1009.7 |
| 20260830212010 | 84 | 326 | 3.0 | 9.0 | 0.00 | 0.00 | 0.00 | 62 | 1009.6 |
| 20260830211520 | 84 | 211 | 2.0 | 10.0 | 0.00 | 0.00 | 0.00 | 62 | 1009.7 |
| 20260830211012 | 85 | 177 | 1.0 | 15.0 | 0.00 | 0.00 | 0.00 | 62 | 1009.6 |
| 20260830210513 | 85 | 165 | 2.0 | 15.0 | 0.00 | 0.00 | 0.00 | 62 | 1009.7 |
| 20260830210029 | 86 | 132 | 2.0 | 9.0 | 0.00 | 0.00 | 0.00 | 60 | 1009.7 |
| 20260830205515 | 86 | 160 | 1.0 | 9.0 | 0.00 | 0.00 | 0.00 | 62 | 1009.8 |
| 20260830205012 | 86 | 126 | 1.0 | 9.0 | 0.00 | 0.00 | 0.00 | 60 | 1009.9 |
| 20260830204504 | 86 | 129 | 2.0 | 6.0 | 0.00 | 0.00 | 0.00 | 59 | 1009.8 |
| 20260830204003 | 87 | 127 | 1.0 | 6.0 | 0.00 | 0.00 | 0.00 | 60 | 1009.7 |
| 20260830203505 | 87 | 96 | 2.0 | 8.0 | 0.00 | 0.00 | 0.00 | 60 | 1009.6 |
| 20260830203003 | 87 | 112 | 2.0 | 9.0 | 0.00 | 0.00 | 0.00 | 61 | 1009.4 |
| 20260830202504 | 86 | 153 | 3.0 | 9.0 | 0.00 | 0.00 | 0.00 | 60 | 1009.6 |
| 20260830202006 | 87 | 142 | 1.0 | 9.0 | 0.00 | 0.00 | 0.00 | 60 | 1009.7 |
| 20260830201510 | 87 | 82 | 3.0 | 8.0 | 0.00 | 0.00 | 0.00 | 63 | 1009.9 |
| 20260830201002 | 87 | 189 | 2.0 | 9.0 | 0.00 | 0.00 | 0.00 | 61 | 1010.0 |
| 20260830200506 | 87 | 133 | 2.0 | 9.0 | 0.00 | 0.00 | 0.00 | 62 | 1010.1 |
| 20260830200014 | 86 | 71 | 1.0 | 12.0 | 0.00 | 0.00 | 0.00 | 64 | 1010.2 |
| 20260830195511 | 85 | 148 | 1.0 | 12.0 | 0.00 | 0.00 | 0.00 | 63 | 1010.2 |
| 20260830195005 | 86 | 88 | 1.0 | 9.0 | 0.00 | 0.00 | 0.00 | 63 | 1010.2 |
| 20260830194518 | 85 | 227 | 3.0 | 9.0 | 0.00 | 0.00 | 0.00 | 64 | 1010.1 |
| 20260830194013 | 85 | 215 | 1.0 | 9.0 | 0.00 | 0.00 | 0.00 | 65 | 1010.2 |
| 20260830193503 | 85 | 104 | 3.0 | 9.0 | 0.00 | 0.00 | 0.00 | 67 | 1010.2 |
| 20260830193004 | 84 | 241 | 1.0 | 10.0 | 0.00 | 0.00 | 0.00 | 69 | 1010.2 |
| 20260830192502 | 85 | 118 | 3.0 | 10.0 | 0.00 | 0.00 | 0.00 | 67 | 1010.1 |
| 20260830192005 | 85 | 185 | 1.0 | 8.0 | 0.00 | 0.00 | 0.00 | 68 | 1010.1 |
| 20260830191507 | 84 | 161 | 1.0 | 8.0 | 0.00 | 0.00 | 0.00 | 68 | 1010.1 |
| 20260830191005 | 84 | 243 | 1.0 | 10.0 | 0.00 | 0.00 | 0.00 | 67 | 1010.1 |
| 20260830190507 | 84 | 121 | 2.0 | 10.0 | 0.00 | 0.00 | 0.00 | 65 | 1010.1 |
| 20260830190005 | 84 | 105 | 3.0 | 9.0 | 0.00 | 0.00 | 0.00 | 65 | 1009.9 |
| 20260830185509 | 85 | 98 | 1.0 | 11.0 | 0.00 | 0.00 | 0.00 | 64 | 1010.0 |
| 20260830185011 | 86 | 144 | 2.0 | 11.0 | 0.00 | 0.00 | 0.00 | 61 | 1009.9 |
| 20260830184519 | 87 | 157 | 2.0 | 7.0 | 0.00 | 0.00 | 0.00 | 60 | 1009.8 |
| 20260830184004 | 86 | 149 | 2.0 | 9.0 | 0.00 | 0.00 | 0.00 | 64 | 1009.7 |
| 20260830183510 | 85 | 159 | 1.0 | 9.0 | 0.00 | 0.00 | 0.00 | 64 | 1009.7 |
| 20260830183020 | 86 | 148 | 2.0 | 7.0 | 0.00 | 0.00 | 0.00 | 62 | 1009.8 |
| 20260830182516 | 86 | 178 | 1.0 | 4.0 | 0.00 | 0.00 | 0.00 | 61 | 1009.8 |
| 20260830182007 | 86 | 198 | 1.0 | 4.0 | 0.00 | 0.00 | 0.00 | 62 | 1009.8 |
| 20260830181516 | 86 | 123 | 1.0 | 6.0 | 0.00 | 0.00 | 0.00 | 61 | 1009.8 |
| 20260830181005 | 86 | 119 | 0.0 | 6.0 | 0.00 | 0.00 | 0.00 | 63 | 1009.8 |
| 20260830180507 | 86 | 90 | 1.0 | 3.0 | 0.00 | 0.00 | 0.00 | 63 | 1009.8 |
| 20260830180007 | 86 | 213 | 0.0 | 4.0 | 0.00 | 0.00 | 0.00 | 65 | 1009.8 |
| 20260830175506 | 85 | 107 | 1.0 | 4.0 | 0.00 | 0.00 | 0.00 | 65 | 1009.9 |
| 20260830175008 | 84 | 91 | 1.0 | 3.0 | 0.00 | 0.00 | 0.00 | 62 | 1010.1 |
| 20260830174510 | 84 | 352 | 0.0 | 3.0 | 0.00 | 0.00 | 0.00 | 67 | 1010.2 |
| 20260830174008 | 84 | 138 | 0.0 | 3.0 | 0.00 | 0.00 | 0.00 | 68 | 1010.2 |
| 20260830173509 | 82 | 167 | 0.0 | 2.0 | 0.00 | 0.00 | 0.00 | 68 | 1010.3 |
| 20260830173007 | 81 | 261 | 0.0 | 3.0 | 0.00 | 0.00 | 0.00 | 72 | 1010.4 |
| 20260830172511 | 80 | 274 | 0.0 | 4.0 | 0.00 | 0.00 | 0.00 | 71 | 1010.4 |
| 20260830172011 | 80 | 211 | 0.0 | 4.0 | 0.00 | 0.00 | 0.00 | 72 | 1010.7 |
| 20260830171527 | 80 | 112 | 1.0 | 7.0 | 0.00 | 0.00 | 0.00 | 72 | 1010.9 |
| 20260830171007 | 79 | 211 | 1.0 | 8.0 | 0.00 | 0.00 | 0.00 | 72 | 1011.0 |
| 20260830170510 | 79 | 257 | 2.0 | 8.0 | 0.00 | 0.00 | 0.00 | 72 | 1011.2 |
| 20260830170025 | 80 | 221 | 3.0 | 9.0 | 0.00 | 0.00 | 0.00 | 72 | 1011.4 |
| 20260830165504 | 80 | 134 | 1.0 | 9.0 | 0.00 | 0.00 | 0.00 | 73 | 1011.3 |
| 20260830165007 | 80 | 133 | 2.0 | 5.0 | 0.00 | 0.00 | 0.00 | 72 | 1011.3 |
| 20260830164519 | 80 | 95 | 1.0 | 8.0 | 0.00 | 0.00 | 0.00 | 73 | 1011.2 |
| 20260830164009 | 80 | 328 | 1.0 | 8.0 | 0.00 | 0.00 | 0.00 | 71 | 1011.3 |
| 20260830163507 | 81 | 243 | 0.0 | 4.0 | 0.00 | 0.00 | 0.00 | 72 | 1011.3 |
| 20260830163015 | 81 | 161 | 1.0 | 5.0 | 0.00 | 0.00 | 0.00 | 71 | 1011.3 |
| 20260830162511 | 82 | 206 | 1.0 | 5.0 | 0.00 | 0.00 | 0.00 | 69 | 1011.1 |
| 20260830162012 | 82 | 257 | 0.0 | 4.0 | 0.00 | 0.00 | 0.00 | 70 | 1010.8 |
| 20260830161510 | 83 | 228 | 1.0 | 4.0 | 0.00 | 0.00 | 0.00 | 69 | 1010.7 |
| 20260830161015 | 83 | 209 | 1.0 | 5.0 | 0.00 | 0.00 | 0.00 | 68 | 1010.4 |
| 20260830160516 | 83 | 236 | 0.0 | 6.0 | 0.00 | 0.00 | 0.00 | 68 | 1010.3 |
| 20260830160012 | 82 | 257 | 0.0 | 6.0 | 0.00 | 0.00 | 0.00 | 69 | 1010.3 |
| 20260830155510 | 82 | 269 | 0.0 | 4.0 | 0.00 | 0.00 | 0.00 | 71 | 1010.2 |
| 20260830155015 | 82 | 260 | 0.0 | 4.0 | 0.00 | 0.00 | 0.00 | 69 | 1010.1 |
| 20260830154528 | 82 | 219 | 0.0 | 2.0 | 0.00 | 0.00 | 0.00 | 71 | 1010.0 |
| 20260830154008 | 81 | 142 | 0.0 | 3.0 | 0.00 | 0.00 | 0.00 | 71 | 1010.0 |
| 20260830153507 | 81 | 115 | 1.0 | 3.0 | 0.00 | 0.00 | 0.00 | 72 | 1010.0 |
| 20260830153013 | 80 | 273 | 0.0 | 3.0 | 0.00 | 0.00 | 0.00 | 72 | 1010.0 |
| 20260830152511 | 79 | 107 | 0.0 | 2.0 | 0.00 | 0.00 | 0.00 | 72 | 1009.9 |
| 20260830152013 | 79 | 107 | 0.0 | 2.0 | 0.00 | 0.00 | 0.00 | 73 | 1010.0 |
| 20260830151520 | 79 | 269 | 0.0 | 2.0 | 0.00 | 0.00 | 0.00 | 73 | 1009.9 |
| 20260830151012 | 80 | 132 | 0.0 | 2.0 | 0.00 | 0.00 | 0.00 | 73 | 1009.8 |
| 20260830150508 | 79 | 135 | 0.0 | 4.0 | 0.00 | 0.00 | 0.00 | 74 | 1009.7 |
| 20260830150023 | 78 | 144 | 1.0 | 4.0 | 0.00 | 0.00 | 0.00 | 74 | 1009.8 |
| 20260830145519 | 78 | 98 | 0.0 | 3.0 | 0.00 | 0.00 | 0.00 | 74 | 1009.9 |
| 20260830145013 | 78 | 137 | 0.0 | 3.0 | 0.00 | 0.00 | 0.00 | 76 | 1009.9 |
| 20260830144503 | 77 | 254 | 1.0 | 3.0 | 0.00 | 0.00 | 0.00 | 76 | 1009.8 |
| 20260830144003 | 77 | 103 | 0.0 | 3.0 | 0.00 | 0.00 | 0.00 | 77 | 1009.8 |
| 20260830143504 | 76 | 182 | 0.0 | 2.0 | 0.00 | 0.00 | 0.00 | 79 | 1009.8 |
| 20260830143010 | 75 | 244 | 0.0 | 2.0 | 0.00 | 0.00 | 0.00 | 80 | 1009.7 |
| 20260830142508 | 75 | 221 | 0.0 | 4.0 | 0.00 | 0.00 | 0.00 | 81 | 1009.7 |
| 20260830142004 | 74 | 221 | 0.0 | 4.0 | 0.00 | 0.00 | 0.00 | 81 | 1009.8 |
| 20260830141520 | 74 | 145 | 0.0 | 4.0 | 0.00 | 0.00 | 0.00 | 82 | 1009.7 |
| 20260830141012 | 74 | 128 | 0.0 | 3.0 | 0.00 | 0.00 | 0.00 | 82 | 1009.8 |
| 20260830140510 | 73 | 128 | 0.0 | 3.0 | 0.00 | 0.00 | 0.00 | 82 | 1009.9 |
| 20260830140007 | 73 | 161 | 0.0 | 4.0 | 0.00 | 0.00 | 0.00 | 83 | 1009.9 |
| 20260830135508 | 73 | 165 | 1.0 | 4.0 | 0.00 | 0.00 | 0.00 | 83 | 1010.0 |
| 20260830135012 | 73 | 199 | 0.0 | 7.0 | 0.00 | 0.00 | 0.00 | 84 | 1010.0 |
| 20260830134536 | 72 | 115 | 2.0 | 7.0 | 0.00 | 0.00 | 0.00 | 85 | 1009.9 |
| 20260830134007 | 72 | 87 | 0.0 | 6.0 | 0.00 | 0.00 | 0.00 | 86 | 1009.9 |
| 20260830133504 | 71 | 237 | 0.0 | 5.0 | 0.00 | 0.00 | 0.00 | 87 | 1009.9 |
| 20260830133008 | 70 | 126 | 0.0 | 4.0 | 0.00 | 0.00 | 0.00 | 87 | 1009.8 |
| 20260830132508 | 70 | 100 | 1.0 | 4.0 | 0.00 | 0.00 | 0.00 | 88 | 1009.8 |
| 20260830132006 | 70 | 103 | 0.0 | 4.0 | 0.00 | 0.00 | 0.00 | 88 | 1009.9 |
| 20260830131511 | 70 | 129 | 1.0 | 4.0 | 0.00 | 0.00 | 0.00 | 88 | 1009.9 |
| 20260830131014 | 70 | 245 | 0.0 | 4.0 | 0.00 | 0.00 | 0.00 | 89 | 1009.9 |
| 20260830130507 | 69 | 108 | 0.0 | 6.0 | 0.00 | 0.00 | 0.00 | 90 | 1010.0 |
| 20260830130018 | 69 | 122 | 1.0 | 6.0 | 0.00 | 0.00 | 0.00 | 90 | 1009.9 |
| 20260830125514 | 69 | 140 | 0.0 | 3.0 | 0.00 | 0.00 | 0.00 | 91 | 1010.0 |
| 20260830125003 | 69 | 133 | 1.0 | 4.0 | 0.00 | 0.00 | 0.00 | 90 | 1009.9 |
| 20260830124515 | 68 | 149 | 0.0 | 5.0 | 0.00 | 0.00 | 0.00 | 90 | 1009.9 |
| 20260830124011 | 68 | 138 | 1.0 | 5.0 | 0.00 | 0.01 | 0.00 | 90 | 1010.0 |
| 20260830123515 | 68 | 142 | 0.0 | 4.0 | 0.00 | 0.01 | 0.00 | 91 | 1010.1 |
| 20260830123010 | 68 | 132 | 0.0 | 4.0 | 0.00 | 0.02 | 0.00 | 91 | 1010.0 |
| 20260830122510 | 68 | 133 | 1.0 | 5.0 | 0.00 | 0.03 | 0.00 | 91 | 1009.8 |
| 20260830122016 | 68 | 130 | 1.0 | 5.0 | 0.00 | 0.03 | 0.00 | 91 | 1009.7 |
| 20260830121508 | 68 | 152 | 1.0 | 3.0 | 0.00 | 0.04 | 0.00 | 91 | 1009.6 |
| 20260830121005 | 68 | 107 | 1.0 | 3.0 | 0.00 | 0.04 | 0.00 | 91 | 1009.6 |
| 20260830120509 | 68 | 100 | 0.0 | 3.0 | 0.00 | 0.05 | 0.00 | 91 | 1009.6 |
| 20260830120015 | 68 | 115 | 0.0 | 3.0 | 0.00 | 0.05 | 0.00 | 91 | 1009.5 |
| 20260830115507 | 68 | 145 | 1.0 | 3.0 | 0.00 | 0.06 | 0.00 | 91 | 1009.6 |
| 20260830115013 | 68 | 141 | 1.0 | 4.0 | 0.00 | 0.06 | 0.00 | 90 | 1009.6 |
| 20260830114523 | 68 | 145 | 1.0 | 4.0 | 0.00 | 0.07 | 0.00 | 90 | 1009.6 |
| 20260830114015 | 68 | 128 | 1.0 | 4.0 | 0.00 | 0.08 | 0.00 | 90 | 1009.5 |
| 20260830113509 | 68 | 130 | 1.0 | 4.0 | 0.00 | 0.08 | 0.00 | 90 | 1009.6 |
| 20260830113026 | 68 | 132 | 0.0 | 2.0 | 0.00 | 0.09 | 0.00 | 90 | 1009.7 |
| 20260830112518 | 68 | 125 | 0.0 | 3.0 | 0.00 | 0.10 | 0.00 | 90 | 1009.7 |
| 20260830112007 | 68 | 112 | 1.0 | 3.0 | 0.00 | 0.11 | 0.00 | 90 | 1009.7 |
| 20260830111522 | 68 | 140 | 1.0 | 3.0 | 0.00 | 0.12 | 0.00 | 90 | 1009.6 |
| 20260830111014 | 68 | 90 | 0.0 | 7.0 | 0.00 | 0.14 | 0.00 | 89 | 1009.6 |
| 20260830110516 | 69 | 123 | 2.0 | 7.0 | 0.00 | 0.16 | 0.00 | 90 | 1009.6 |
| 20260830110016 | 69 | 152 | 1.0 | 4.0 | 0.00 | 0.17 | 0.00 | 90 | 1009.6 |
| 20260830105509 | 69 | 133 | 1.0 | 5.0 | 0.00 | 0.18 | 0.00 | 89 | 1009.6 |
| 20260830105010 | 69 | 148 | 1.0 | 5.0 | 0.00 | 0.18 | 0.00 | 89 | 1009.6 |
| 20260830104521 | 69 | 127 | 0.0 | 5.0 | 0.00 | 0.19 | 0.00 | 89 | 1010.0 |
| 20260830104012 | 69 | 117 | 1.0 | 5.0 | 0.00 | 0.20 | 0.00 | 89 | 1009.9 |
| 20260830103514 | 69 | 138 | 0.0 | 4.0 | 0.00 | 0.21 | 0.00 | 89 | 1009.9 |
| 20260830103024 | 69 | 104 | 0.0 | 4.0 | 0.00 | 0.22 | 0.00 | 89 | 1009.8 |
| 20260830102511 | 69 | 116 | 1.0 | 4.0 | 0.00 | 0.23 | 0.00 | 89 | 1009.8 |
| 20260830102013 | 69 | 87 | 1.0 | 6.0 | 0.00 | 0.24 | 0.00 | 89 | 1009.7 |
| 20260830101525 | 69 | 96 | 1.0 | 6.0 | 0.00 | 0.25 | 0.00 | 89 | 1009.8 |
| 20260830101018 | 69 | 93 | 1.0 | 4.0 | 0.00 | 0.27 | 0.00 | 89 | 1009.9 |
| 20260830100512 | 69 | 92 | 1.0 | 7.0 | 0.00 | 0.28 | 0.00 | 89 | 1009.8 |
| 20260830100028 | 69 | 139 | 1.0 | 7.0 | 0.00 | 0.29 | 0.00 | 89 | 1009.8 |
| 20260830095517 | 69 | 146 | 1.0 | 4.0 | 0.00 | 0.30 | 0.00 | 89 | 1009.8 |
| 20260830095010 | 69 | 144 | 0.0 | 7.0 | 0.00 | 0.31 | 0.00 | 89 | 1009.8 |
| 20260830094529 | 69 | 126 | 0.0 | 7.0 | 0.00 | 0.32 | 0.00 | 89 | 1009.8 |
| 20260830094012 | 69 | 98 | 0.0 | 6.0 | 0.00 | 0.33 | 0.00 | 89 | 1009.8 |
| 20260830093511 | 69 | 71 | 1.0 | 6.0 | 0.00 | 0.33 | 0.00 | 89 | 1009.7 |
| 20260830093022 | 69 | 139 | 1.0 | 4.0 | 0.00 | 0.33 | 0.00 | 89 | 1009.8 |
| 20260830092515 | 69 | 108 | 1.0 | 4.0 | 0.00 | 0.33 | 0.00 | 89 | 1009.8 |
| 20260830092015 | 69 | 134 | 0.0 | 3.0 | 0.00 | 0.34 | 0.00 | 89 | 1010.0 |
| 20260830091534 | 69 | 147 | 0.0 | 3.0 | 0.00 | 0.34 | 0.00 | 89 | 1009.8 |
| 20260830091012 | 69 | 113 | 0.0 | 4.0 | 0.00 | 0.34 | 0.00 | 89 | 1009.9 |
| 20260830090519 | 69 | 95 | 0.0 | 5.0 | 0.00 | 0.34 | 0.00 | 89 | 1009.7 |
| 20260830090031 | 69 | 106 | 1.0 | 5.0 | 0.00 | 0.34 | 0.00 | 89 | 1009.6 |
| 20260830085514 | 69 | 141 | 0.0 | 3.0 | 0.00 | 0.34 | 0.00 | 89 | 1009.7 |
| 20260830085014 | 69 | 128 | 0.0 | 4.0 | 0.00 | 0.34 | 0.00 | 89 | 1009.8 |
| 20260830084508 | 69 | 121 | 0.0 | 4.0 | 0.00 | 0.34 | 0.00 | 89 | 1009.9 |
| 20260830084009 | 69 | 125 | 2.0 | 4.0 | 0.00 | 0.34 | 0.00 | 89 | 1009.9 |
| 20260830083516 | 69 | 157 | 0.0 | 5.0 | 0.00 | 0.34 | 0.00 | 89 | 1009.9 |
| 20260830083007 | 69 | 161 | 0.0 | 5.0 | 0.00 | 0.34 | 0.00 | 89 | 1010.0 |
| 20260830082510 | 69 | 161 | 1.0 | 5.0 | 0.00 | 0.34 | 0.00 | 89 | 1010.1 |
| 20260830082011 | 69 | 125 | 1.0 | 4.0 | 0.00 | 0.34 | 0.00 | 89 | 1010.1 |
| 20260830081512 | 69 | 132 | 1.0 | 4.0 | 0.00 | 0.34 | 0.00 | 89 | 1010.1 |
| 20260830081003 | 69 | 149 | 1.0 | 5.0 | 0.00 | 0.34 | 0.00 | 89 | 1010.0 |
| 20260830080504 | 69 | 130 | 1.0 | 5.0 | 0.00 | 0.34 | 0.00 | 89 | 1010.0 |
| 20260830080006 | 69 | 109 | 0.0 | 5.0 | 0.00 | 0.34 | 0.00 | 89 | 1009.9 |
| 20260830075504 | 69 | 131 | 2.0 | 6.0 | 0.00 | 0.34 | 0.00 | 89 | 1010.0 |
| 20260830075004 | 69 | 151 | 1.0 | 6.0 | 0.00 | 0.34 | 0.00 | 89 | 1010.0 |
| 20260830074509 | 69 | 132 | 1.0 | 6.0 | 0.00 | 0.34 | 0.00 | 89 | 1010.1 |
| 20260830074003 | 69 | 143 | 0.0 | 3.0 | 0.00 | 0.34 | 0.00 | 89 | 1010.1 |
| 20260830073508 | 69 | 149 | 1.0 | 3.0 | 0.00 | 0.34 | 0.00 | 89 | 1010.1 |
| 20260830073020 | 69 | 108 | 0.0 | 4.0 | 0.00 | 0.34 | 0.00 | 89 | 1010.1 |
| 20260830072508 | 69 | 108 | 0.0 | 4.0 | 0.00 | 0.34 | 0.00 | 88 | 1010.1 |
| 20260830072003 | 69 | 155 | 1.0 | 5.0 | 0.00 | 0.34 | 0.00 | 88 | 1010.2 |
| 20260830071512 | 69 | 132 | 1.0 | 6.0 | 0.00 | 0.34 | 0.00 | 88 | 1010.2 |
| 20260830071014 | 69 | 113 | 1.0 | 6.0 | 0.00 | 0.34 | 0.00 | 88 | 1010.2 |
| 20260830070516 | 69 | 96 | 1.0 | 4.0 | 0.00 | 0.34 | 0.00 | 88 | 1010.1 |
| 20260830070009 | 69 | 130 | 0.0 | 4.0 | 0.00 | 0.34 | 0.00 | 88 | 1010.3 |
| 20260830065512 | 69 | 160 | 1.0 | 5.0 | 0.00 | 0.34 | 0.00 | 88 | 1010.3 |
| 20260830065002 | 70 | 138 | 1.0 | 5.0 | 0.00 | 0.34 | 0.00 | 87 | 1010.3 |
| 20260830064504 | 70 | 147 | 1.0 | 4.0 | 0.00 | 0.34 | 0.00 | 87 | 1010.3 |
| 20260830064003 | 70 | 132 | 1.0 | 3.0 | 0.00 | 0.34 | 0.00 | 87 | 1010.4 |
| 20260830063510 | 70 | 136 | 0.0 | 7.0 | 0.00 | 0.34 | 0.00 | 87 | 1010.6 |
| 20260830063018 | 70 | 146 | 1.0 | 7.0 | 0.00 | 0.34 | 0.00 | 87 | 1010.7 |
| 20260830062502 | 70 | 132 | 1.0 | 4.0 | 0.00 | 0.34 | 0.00 | 87 | 1010.8 |
| 20260830062011 | 70 | 104 | 0.0 | 6.0 | 0.00 | 0.34 | 0.00 | 87 | 1010.8 |
| 20260830061516 | 70 | 125 | 2.0 | 6.0 | 0.00 | 0.34 | 0.00 | 87 | 1010.9 |
| 20260830061007 | 70 | 76 | 0.0 | 3.0 | 0.00 | 0.34 | 0.00 | 87 | 1010.8 |
| 20260830060508 | 70 | 159 | 0.0 | 3.0 | 0.00 | 0.34 | 0.00 | 86 | 1010.8 |
| 20260830060022 | 70 | 120 | 1.0 | 5.0 | 0.00 | 0.34 | 0.00 | 86 | 1010.9 |
| 20260830055515 | 70 | 113 | 0.0 | 5.0 | 0.00 | 0.34 | 0.00 | 86 | 1010.9 |
| 20260830055003 | 70 | 148 | 0.0 | 4.0 | 0.00 | 0.34 | 0.00 | 86 | 1010.9 |
| 20260830054527 | 70 | 138 | 1.0 | 4.0 | 0.00 | 0.34 | 0.00 | 86 | 1010.9 |
| 20260830054017 | 70 | 112 | 0.0 | 6.0 | 0.00 | 0.34 | 0.00 | 85 | 1011.0 |
| 20260830053503 | 70 | 127 | 1.0 | 6.0 | 0.00 | 0.34 | 0.00 | 85 | 1011.0 |
| 20260830053008 | 70 | 137 | 0.0 | 5.0 | 0.00 | 0.34 | 0.00 | 85 | 1011.1 |
| 20260830052507 | 70 | 145 | 2.0 | 5.0 | 0.00 | 0.34 | 0.00 | 85 | 1011.1 |
| 20260830052007 | 70 | 123 | 1.0 | 4.0 | 0.00 | 0.34 | 0.00 | 85 | 1011.2 |
| 20260830051507 | 70 | 180 | 2.0 | 5.0 | 0.00 | 0.34 | 0.00 | 84 | 1011.2 |
| 20260830051010 | 70 | 141 | 1.0 | 5.0 | 0.00 | 0.34 | 0.00 | 84 | 1011.3 |
| 20260830050509 | 71 | 128 | 1.0 | 4.0 | 0.00 | 0.34 | 0.00 | 84 | 1011.3 |
| 20260830050021 | 71 | 128 | 1.0 | 5.0 | 0.00 | 0.34 | 0.00 | 84 | 1011.4 |
| 20260830045508 | 71 | 165 | 1.0 | 5.0 | 0.00 | 0.34 | 0.34 | 84 | 1011.3 |
| 20260830045011 | 71 | 142 | 0.0 | 3.0 | 0.00 | 0.34 | 0.34 | 83 | 1011.3 |
| 20260830044524 | 71 | 113 | 1.0 | 6.0 | 0.00 | 0.34 | 0.34 | 83 | 1011.3 |
| 20260830044006 | 71 | 129 | 2.0 | 6.0 | 0.00 | 0.34 | 0.34 | 83 | 1011.4 |
| 20260830043512 | 71 | 128 | 1.0 | 6.0 | 0.00 | 0.34 | 0.34 | 83 | 1011.4 |
| 20260830043024 | 71 | 113 | 1.0 | 6.0 | 0.00 | 0.34 | 0.34 | 82 | 1011.5 |
| 20260830042518 | 71 | 125 | 0.0 | 6.0 | 0.00 | 0.34 | 0.34 | 82 | 1011.5 |
| 20260830042008 | 71 | 136 | 1.0 | 4.0 | 0.00 | 0.34 | 0.34 | 82 | 1011.6 |
| 20260830041510 | 71 | 146 | 1.0 | 4.0 | 0.00 | 0.34 | 0.34 | 82 | 1011.7 |
| 20260830041008 | 71 | 114 | 1.0 | 5.0 | 0.00 | 0.34 | 0.34 | 82 | 1011.8 |
| 20260830040508 | 71 | 138 | 2.0 | 6.0 | 0.00 | 0.34 | 0.34 | 81 | 1011.7 |
| 20260830040014 | 71 | 136 | 1.0 | 6.0 | 0.00 | 0.34 | 0.34 | 81 | 1011.7 |
| 20260830035512 | 71 | 122 | 2.0 | 6.0 | 0.00 | 0.34 | 0.34 | 81 | 1011.7 |
| 20260830035010 | 71 | 140 | 1.0 | 7.0 | 0.00 | 0.34 | 0.34 | 81 | 1011.8 |
| 20260830034518 | 71 | 95 | 2.0 | 7.0 | 0.00 | 0.34 | 0.34 | 81 | 1011.8 |
| 20260830034014 | 71 | 163 | 2.0 | 6.0 | 0.00 | 0.34 | 0.34 | 81 | 1011.7 |
| 20260830033514 | 71 | 128 | 1.0 | 5.0 | 0.00 | 0.34 | 0.34 | 81 | 1011.7 |
| 20260830033027 | 72 | 138 | 1.0 | 5.0 | 0.00 | 0.34 | 0.34 | 80 | 1011.7 |
| 20260830032511 | 72 | 142 | 1.0 | 8.0 | 0.00 | 0.34 | 0.34 | 80 | 1011.7 |
| 20260830032013 | 72 | 136 | 4.0 | 8.0 | 0.00 | 0.34 | 0.34 | 80 | 1011.6 |
| 20260830031531 | 72 | 167 | 2.0 | 9.0 | 0.00 | 0.34 | 0.34 | 80 | 1011.5 |
| 20260830031012 | 72 | 169 | 2.0 | 9.0 | 0.00 | 0.34 | 0.34 | 80 | 1011.5 |
| 20260830030515 | 72 | 95 | 1.0 | 6.0 | 0.00 | 0.34 | 0.34 | 79 | 1011.5 |
| 20260830030011 | 72 | 89 | 1.0 | 6.0 | 0.00 | 0.34 | 0.34 | 79 | 1011.6 |
| 20260830025509 | 72 | 88 | 1.0 | 5.0 | 0.00 | 0.34 | 0.34 | 79 | 1011.6 |
| 20260830025009 | 72 | 125 | 1.0 | 6.0 | 0.00 | 0.34 | 0.34 | 79 | 1011.7 |
| 20260830024522 | 72 | 160 | 1.0 | 6.0 | 0.00 | 0.34 | 0.34 | 79 | 1011.8 |
| 20260830024013 | 72 | 121 | 1.0 | 5.0 | 0.00 | 0.34 | 0.34 | 79 | 1011.8 |
| 20260830023508 | 72 | 76 | 1.0 | 5.0 | 0.00 | 0.34 | 0.34 | 78 | 1011.8 |
| 20260830023019 | 72 | 96 | 0.0 | 5.0 | 0.00 | 0.34 | 0.34 | 78 | 1011.8 |
| 20260830022517 | 73 | 226 | 1.0 | 5.0 | 0.00 | 0.34 | 0.34 | 78 | 1011.7 |
| 20260830022016 | 72 | 119 | 0.0 | 7.0 | 0.00 | 0.34 | 0.34 | 78 | 1011.7 |
| 20260830021516 | 73 | 137 | 0.0 | 7.0 | 0.00 | 0.34 | 0.34 | 78 | 1011.6 |
| 20260830021015 | 73 | 187 | 0.0 | 5.0 | 0.00 | 0.34 | 0.34 | 77 | 1011.7 |
| 20260830020520 | 73 | 173 | 1.0 | 5.0 | 0.00 | 0.34 | 0.34 | 77 | 1011.7 |
| 20260830020036 | 73 | 155 | 1.0 | 5.0 | 0.00 | 0.34 | 0.34 | 77 | 1011.7 |
| 20260830015511 | 73 | 137 | 1.0 | 5.0 | 0.00 | 0.34 | 0.34 | 77 | 1011.5 |
| 20260830015016 | 73 | 115 | 0.0 | 3.0 | 0.00 | 0.34 | 0.34 | 77 | 1011.4 |
| 20260830014513 | 73 | 134 | 0.0 | 3.0 | 0.00 | 0.34 | 0.34 | 77 | 1011.4 |
| 20260830014011 | 73 | 113 | 0.0 | 4.0 | 0.00 | 0.34 | 0.34 | 76 | 1011.3 |
| 20260830013512 | 73 | 122 | 0.0 | 4.0 | 0.00 | 0.34 | 0.34 | 76 | 1011.2 |
| 20260830013019 | 73 | 172 | 1.0 | 6.0 | 0.00 | 0.34 | 0.34 | 76 | 1011.2 |
| 20260830012512 | 73 | 139 | 0.0 | 6.0 | 0.00 | 0.34 | 0.34 | 76 | 1011.2 |
| 20260830012014 | 73 | 127 | 0.0 | 8.0 | 0.00 | 0.34 | 0.34 | 76 | 1011.1 |
| 20260830011528 | 73 | 143 | 1.0 | 8.0 | 0.00 | 0.34 | 0.34 | 75 | 1011.0 |
| 20260830011015 | 74 | 171 | 1.0 | 8.0 | 0.00 | 0.34 | 0.34 | 75 | 1011.0 |
| 20260830010510 | 74 | 232 | 0.0 | 3.0 | 0.00 | 0.34 | 0.34 | 75 | 1011.0 |
| 20260830010026 | 74 | 132 | 0.0 | 5.0 | 0.00 | 0.34 | 0.34 | 75 | 1011.1 |